Find TDRS-6

NORAD ID: 22314 Int'l Des: 1993-003 Owner: GSFC Country: US operational
HEOCIRCULARGSO

リアルタイム位置

3D地球を読み込み中...

TDRS-6について

説明を読み込み中...

次回通過

Passes for default location (London). Set your location on the main map for personalized predictions.

高度履歴

Loading altitude history...

軌道要素

1 22314U 93003B 26106.90994187 -.00000290 00000-0 00000-0 0 9991
2 22314 14.1823 357.5161 0005554 183.8575 305.3988 1.00277127121790
Epoch: Apr 16, 2026 • Age: 14 hours

現在のステータス

高度 35806.4 km
速度 3.07 km/s
衛星直下点 -5.66°S, 45.17°W
打ち上げ日 Jan 13, 1993
運用期間 33.2 years
タイプ other

技術仕様

分類 Payload
質量 2534.00 kg
乾燥質量 1673.00 kg
総質量 2534.00 kg
長さ 1.30 m
直径 2.40 m
スパン 17.40 m
形状 Box + Dish + 2 Pan
製造者 TRW
バスタイプ TDRS
フェーズステータス In Orbit
所有者/国 GSFC/US

Most Searched